"Sample Date","Sample Time","Sample Value","Units","Flow Rate","Sample Interval","Number Channels","Micron Size 0","Counts/Channel 0","Micron Size 1","Counts/Channel 1","Micron Size 2","Counts/Channel 2","Micron Size 3","Counts/Channel 3","Micron Size 4","Counts/Channel 4","Micron Size 5","Counts/Channel 5","Micron Size 6","Counts/Channel 6","Micron Size 7","Counts/Channel 7","Micron Size 8","Counts/Channel 8","Micron Size 9","Counts/Channel 9","Micron Size 10","Counts/Channel 10","Micron Size 11","Counts/Channel 11","Micron Size 12","Counts/Channel 12","Micron Size 13","Counts/Channel 13","Micron Size 14","Counts/Channel 14","Micron Size 15","Counts/Channel 15","Micron Size 16","Counts/Channel 16","Micron Size 17","Counts/Channel 17","Micron Size 18","Counts/Channel 18","Micron Size 19","Counts/Channel 19","Micron Size 20","Counts/Channel 20","Micron Size 21","Counts/Channel 21","Micron Size 22","Counts/Channel 22","Micron Size 23","Counts/Channel 23","Micron Size 24","Counts/Channel 24","Micron Size 25","Counts/Channel 25","Micron Size 26","Counts/Channel 26","Micron Size 27","Counts/Channel 27","Micron Size 28","Counts/Channel 28","Micron Size 29","Counts/Channel 29","Micron Size 30","Counts/Channel 30","Micron Size 31","Counts/Channel 31"
"04/01/08","00:00:04",22405.000,"cc",28322.842,6.00,6,0.100,14510.000,0.200,3132.000,0.300,2133.000,0.500,2017.000,1.000,613.000,5.000,0
"04/01/08","00:00:10",24072.000,"cc",28281.397,6.00,6,0.100,15544.000,0.200,3429.000,0.300,2288.000,0.500,2155.000,1.000,656.000,5.000,0
"04/01/08","00:00:16",18890.000,"cc",28322.842,6.00,6,0.100,12590.000,0.200,2502.000,0.300,1675.000,0.500,1679.000,1.000,444.000,5.000,0
"04/01/08","00:00:22",32438.000,"cc",28322.773,6.00,6,0.100,18912.000,0.200,5467.000,0.300,3826.000,0.500,3222.000,1.000,1011.000,5.000,0
"04/01/08","00:00:28",33036.000,"cc",28326.059,6.00,6,0.100,20613.000,0.200,5197.000,0.300,3357.000,0.500,2989.000,1.000,880.000,5.000,0
"04/01/08","00:00:34",22834.000,"cc",28274.881,6.00,6,0.100,13598.000,0.200,3460.000,0.300,2510.000,0.500,2537.000,1.000,729.000,5.000,0
"04/01/08","00:00:40",20927.000,"cc",28261.803,6.00,6,0.100,13844.000,0.200,2845.000,0.300,1874.000,0.500,1789.000,1.000,575.000,5.000,0
"04/01/08","00:00:46",33573.000,"cc",28331.119,6.00,6,0.100,23987.000,0.200,4390.000,0.300,2382.000,0.500,2172.000,1.000,642.000,5.000,0
"04/01/08","00:00:52",35348.000,"cc",28276.137,6.00,6,0.100,24364.000,0.200,5072.000,0.300,2828.000,0.500,2427.000,1.000,657.000,5.000,0
"04/01/08","00:00:58",32745.000,"cc",28398.893,6.00,6,0.100,21646.000,0.200,4802.000,0.300,2910.000,0.500,2590.000,1.000,797.000,5.000,0
"04/01/08","00:01:04",30732.000,"cc",28305.652,6.00,6,0.100,18285.000,0.200,5072.000,0.300,3464.000,0.500,3007.000,1.000,904.000,5.000,0
"04/01/08","00:01:10",21468.000,"cc",28337.563,6.00,6,0.100,13348.000,0.200,3050.000,0.300,2191.000,0.500,2207.000,1.000,672.000,5.000,0
"04/01/08","00:01:16",21095.000,"cc",28339.404,6.00,6,0.100,13877.000,0.200,2839.000,0.300,1893.000,0.500,1941.000,1.000,545.000,5.000,0
"04/01/08","00:01:22",25829.000,"cc",28297.285,6.00,6,0.100,19637.000,0.200,2844.000,0.300,1481.000,0.500,1453.000,1.000,414.000,5.000,0
"04/01/08","00:01:28",18986.000,"cc",28261.621,6.00,6,0.100,13187.000,0.200,2336.000,0.300,1508.000,0.500,1506.000,1.000,449.000,5.000,0
"04/01/08","00:01:34",16231.000,"cc",28329.981,6.00,6,0.100,11018.000,0.200,1980.000,0.300,1363.000,0.500,1458.000,1.000,412.000,5.000,0
"04/01/08","00:01:40",25540.000,"cc",28361.072,6.00,6,0.100,16040.000,0.200,3858.000,0.300,2604.000,0.500,2332.000,1.000,706.000,5.000,0
"04/01/08","00:01:46",26140.000,"cc",28312.348,6.00,6,0.100,15788.000,0.200,4256.000,0.300,2847.000,0.500,2564.000,1.000,685.000,5.000,0
"04/01/08","00:01:52",27437.000,"cc",28383.086,6.00,6,0.100,16237.000,0.200,4520.000,0.300,3099.000,0.500,2726.000,1.000,855.000,5.000,0
"04/01/08","00:01:58",29445.000,"cc",28307.332,6.00,6,0.100,19956.000,0.200,4204.000,0.300,2488.000,0.500,2164.000,1.000,633.000,5.000,0
"04/01/08","00:02:04",30158.000,"cc",28265.865,6.00,6,0.100,20130.000,0.200,4392.000,0.300,2658.000,0.500,2345.000,1.000,633.000,5.000,0
"04/01/08","00:02:10",30671.000,"cc",28354.893,6.00,6,0.100,19282.000,0.200,4914.000,0.300,3091.000,0.500,2642.000,1.000,742.000,5.000,0
"04/01/08","00:02:16",38762.000,"cc",28304.512,6.00,6,0.100,26524.000,0.200,5669.000,0.300,3172.000,0.500,2661.000,1.000,736.000,5.000,0
"04/01/08","00:02:22",41522.000,"cc",28297.494,6.00,6,0.100,32282.000,0.200,4751.000,0.300,1981.000,0.500,1941.000,1.000,567.000,5.000,0
"04/01/08","00:02:28",31729.000,"cc",28343.100,6.00,6,0.100,23157.000,0.200,3898.000,0.300,2087.000,0.500,2008.000,1.000,579.000,5.000,0
"04/01/08","00:02:34",40231.000,"cc",28315.887,6.00,6,0.100,30991.000,0.200,4551.000,0.300,2122.000,0.500,1979.000,1.000,588.000,5.000,0
"04/01/08","00:02:40",25599.000,"cc",28362.904,6.00,6,0.100,18930.000,0.200,2866.000,0.300,1664.000,0.500,1602.000,1.000,537.000,5.000,0
"04/01/08","00:02:46",30728.000,"cc",28317.604,6.00,6,0.100,23855.000,0.200,3324.000,0.300,1474.000,0.500,1574.000,1.000,501.000,5.000,0
"04/01/08","00:02:52",53113.000,"cc",28276.690,6.00,6,0.100,43746.000,0.200,5439.000,0.300,1766.000,0.500,1602.000,1.000,560.000,5.000,0
"04/01/08","00:02:58",78490.000,"cc",28304.994,6.00,6,0.100,65851.000,0.200,8004.000,0.300,2159.000,0.500,1843.000,1.000,633.000,5.000,0
"04/01/08","00:03:04",56956.000,"cc",28374.981,6.00,6,0.100,47058.000,0.200,5832.000,0.300,1892.000,0.500,1631.000,1.000,543.000,5.000,0
"04/01/08","00:03:10",59855.000,"cc",28272.272,6.00,6,0.100,49346.000,0.200,6289.000,0.300,1903.000,0.500,1762.000,1.000,555.000,5.000,0
"04/01/08","00:03:16",52881.000,"cc",28298.447,6.00,6,0.100,43140.000,0.200,5566.000,0.300,1891.000,0.500,1770.000,1.000,514.000,5.000,0
"04/01/08","00:03:22",91069.000,"cc",28285.445,6.00,6,0.100,77682.000,0.200,8965.000,0.300,2123.000,0.500,1749.000,1.000,550.000,5.000,0
"04/01/08","00:03:28",96083.000,"cc",28338.891,6.00,6,0.100,82607.000,0.200,8964.000,0.300,2180.000,0.500,1759.000,1.000,573.000,5.000,0
"04/01/08","00:03:34",123518.000,"cc",28349.369,6.00,6,0.100,108778.000,0.200,10086.000,0.300,2143.000,0.500,1911.000,1.000,600.000,5.000,0
"04/01/08","00:03:40",149919.000,"cc",28273.523,6.00,6,0.100,133164.000,0.200,12243.000,0.300,2280.000,0.500,1714.000,1.000,518.000,5.000,0
"04/01/08","00:03:46",138114.000,"cc",28323.592,6.00,6,0.100,123605.000,0.200,10319.000,0.300,2053.000,0.500,1625.000,1.000,512.000,5.000,0
"04/01/08","00:03:52",50578.000,"cc",28291.875,6.00,6,0.100,41325.000,0.200,5126.000,0.300,1917.000,0.500,1680.000,1.000,530.000,5.000,0
"04/01/08","00:03:58",46285.000,"cc",28390.348,6.00,6,0.100,37422.000,0.200,4729.000,0.300,1828.000,0.500,1744.000,1.000,562.000,5.000,0
"04/01/08","00:04:04",31850.000,"cc",28277.328,6.00,6,0.100,21407.000,0.200,4154.000,0.300,2699.000,0.500,2685.000,1.000,905.000,5.000,0
"04/01/08","00:04:10",35632.000,"cc",28343.613,6.00,6,0.100,27328.000,0.200,3730.000,0.300,2007.000,0.500,1914.000,1.000,653.000,5.000,0
"04/01/08","00:04:16",46149.000,"cc",28314.303,6.00,6,0.100,37893.000,0.200,4241.000,0.300,1778.000,0.500,1690.000,1.000,547.000,5.000,0
"04/01/08","00:04:22",60490.000,"cc",28299.076,6.00,6,0.100,51002.000,0.200,5199.000,0.300,1873.000,0.500,1814.000,1.000,602.000,5.000,0
"04/01/08","00:04:28",74556.000,"cc",28325.385,6.00,6,0.100,64781.000,0.200,5872.000,0.300,1727.000,0.500,1653.000,1.000,523.000,5.000,0
"04/01/08","00:04:34",78651.000,"cc",28311.850,6.00,6,0.100,69240.000,0.200,5695.000,0.300,1701.000,0.500,1525.000,1.000,490.000,5.000,0
"04/01/08","00:04:40",117097.000,"cc",28325.799,6.00,6,0.100,104894.000,0.200,8449.000,0.300,1761.000,0.500,1526.000,1.000,467.000,5.000,0
"04/01/08","00:04:46",180560.000,"cc",28369.203,6.00,6,0.100,163289.000,0.200,13115.000,0.300,2024.000,0.500,1611.000,1.000,521.000,5.000,0
"04/01/08","00:04:52",135241.000,"cc",28297.481,6.00,6,0.100,122302.000,0.200,9650.000,0.300,1540.000,0.500,1328.000,1.000,421.000,5.000,0
"04/01/08","00:04:58",136365.000,"cc",28277.686,6.00,6,0.100,123417.000,0.200,9818.000,0.300,1546.000,0.500,1244.000,1.000,340.000,5.000,0
"04/01/08","00:05:04",150569.000,"cc",28322.113,6.00,6,0.100,136516.000,0.200,10671.000,0.300,1637.000,0.500,1382.000,1.000,363.000,5.000,0
"04/01/08","00:05:10",141160.000,"cc",28282.328,6.00,6,0.100,126882.000,0.200,10297.000,0.300,1895.000,0.500,1618.000,1.000,468.000,5.000,0
"04/01/08","00:05:16",290354.000,"cc",28360.557,6.00,6,0.100,261754.000,0.200,23347.000,0.300,2703.000,0.500,1967.000,1.000,583.000,5.000,0
"04/01/08","00:05:22",313046.000,"cc",28272.256,6.00,6,0.100,283040.000,0.200,25753.000,0.300,2296.000,0.500,1494.000,1.000,463.000,5.000,0
"04/01/08","00:05:28",214242.000,"cc",28298.875,6.00,6,0.100,194935.000,0.200,15562.000,0.300,1868.000,0.500,1455.000,1.000,422.000,5.000,0
"04/01/08","00:05:34",138024.000,"cc",28398.842,6.00,6,0.100,124913.000,0.200,9895.000,0.300,1554.000,0.500,1268.000,1.000,394.000,5.000,0
"04/01/08","00:05:40",79451.000,"cc",28322.115,6.00,6,0.100,70536.000,0.200,5787.000,0.300,1428.000,0.500,1305.000,1.000,395.000,5.000,0
"04/01/08","00:05:46",72596.000,"cc",28242.811,6.00,6,0.100,64479.000,0.200,5162.000,0.300,1314.000,0.500,1277.000,1.000,364.000,5.000,0
"04/01/08","00:05:52",67250.000,"cc",28281.465,6.00,6,0.100,59740.000,0.200,4807.000,0.300,1212.000,0.500,1131.000,1.000,360.000,5.000,0
"04/01/08","00:05:58",109422.000,"cc",28363.326,6.00,6,0.100,98566.000,0.200,7929.000,0.300,1360.000,0.500,1203.000,1.000,364.000,5.000,0
"04/01/08","00:06:04",69947.000,"cc",28338.643,6.00,6,0.100,62030.000,0.200,5239.000,0.300,1208.000,0.500,1125.000,1.000,345.000,5.000,0
"04/01/08","00:06:10",40536.000,"cc",28299.242,6.00,6,0.100,34469.000,0.200,3268.000,0.300,1195.000,0.500,1255.000,1.000,349.000,5.000,0
"04/01/08","00:06:16",161215.000,"cc",28296.660,6.00,6,0.100,143424.000,0.200,14276.000,0.300,1769.000,0.500,1332.000,1.000,414.000,5.000,0
"04/01/08","00:06:22",60616.000,"cc",28291.229,6.00,6,0.100,53214.000,0.200,4604.000,0.300,1265.000,0.500,1169.000,1.000,364.000,5.000,0
"04/01/08","00:06:28",88104.000,"cc",28403.740,6.00,6,0.100,78358.000,0.200,6829.000,0.300,1324.000,0.500,1214.000,1.000,379.000,5.000,0
"04/01/08","00:06:34",52909.000,"cc",28288.994,6.00,6,0.100,46066.000,0.200,4110.000,0.300,1168.000,0.500,1182.000,1.000,383.000,5.000,0
"04/01/08","00:06:40",34086.000,"cc",28318.418,6.00,6,0.100,28535.000,0.200,2938.000,0.300,1045.000,0.500,1176.000,1.000,392.000,5.000,0
"04/01/08","00:06:46",18241.000,"cc",28238.102,6.00,6,0.100,14021.000,0.200,1745.000,0.300,1038.000,0.500,1077.000,1.000,360.000,5.000,0
"04/01/08","00:06:52",17160.000,"cc",28263.174,6.00,6,0.100,13128.000,0.200,1733.000,0.300,962.000,0.500,1012.000,1.000,325.000,5.000,0
"04/01/08","00:06:58",12704.000,"cc",28405.908,6.00,6,0.100,9223.000,0.200,1272.000,0.300,914.000,0.500,985.000,1.000,310.000,5.000,0
"04/01/08","00:07:04",15153.000,"cc",28319.682,6.00,6,0.100,11080.000,0.200,1497.000,0.300,1077.000,0.500,1166.000,1.000,333.000,5.000,0
"04/01/08","00:07:10",12385.000,"cc",28296.404,6.00,6,0.100,8659.000,0.200,1354.000,0.300,991.000,0.500,1070.000,1.000,311.000,5.000,0
"04/01/08","00:07:16",14149.000,"cc",28276.361,6.00,6,0.100,10158.000,0.200,1491.000,0.300,1024.000,0.500,1168.000,1.000,308.000,5.000,0
"04/01/08","00:07:22",13287.000,"cc",28344.150,6.00,6,0.100,9278.000,0.200,1562.000,0.300,1021.000,0.500,1081.000,1.000,345.000,5.000,0
"04/01/08","00:07:28",12272.000,"cc",28339.893,6.00,6,0.100,8691.000,0.200,1345.000,0.300,923.000,0.500,1027.000,1.000,286.000,5.000,0
"04/01/08","00:07:34",11632.000,"cc",28279.037,6.00,6,0.100,8047.000,0.200,1278.000,0.300,960.000,0.500,1051.000,1.000,296.000,5.000,0
"04/01/08","00:07:40",11379.000,"cc",28338.647,6.00,6,0.100,8067.000,0.200,1222.000,0.300,884.000,0.500,943.000,1.000,263.000,5.000,0
"04/01/08","00:07:46",11174.000,"cc",28328.561,6.00,6,0.100,7902.000,0.200,1252.000,0.300,842.000,0.500,907.000,1.000,271.000,5.000,0
"04/01/08","00:07:52",11124.000,"cc",28398.639,6.00,6,0.100,7899.000,0.200,1196.000,0.300,849.000,0.500,915.000,1.000,265.000,5.000,0
"04/01/08","00:07:58",11520.000,"cc",28276.275,6.00,6,0.100,8177.000,0.200,1181.000,0.300,887.000,0.500,963.000,1.000,312.000,5.000,0
"04/01/08","00:08:04",11501.000,"cc",28321.611,6.00,6,0.100,8046.000,0.200,1295.000,0.300,952.000,0.500,938.000,1.000,270.000,5.000,0
"04/01/08","00:08:10",12685.000,"cc",28287.391,6.00,6,0.100,8695.000,0.200,1498.000,0.300,1088.000,0.500,1100.000,1.000,304.000,5.000,0
"04/01/08","00:08:16",11881.000,"cc",28295.215,6.00,6,0.100,8463.000,0.200,1255.000,0.300,935.000,0.500,903.000,1.000,325.000,5.000,0
"04/01/08","00:08:22",13621.000,"cc",28379.365,6.00,6,0.100,9768.000,0.200,1458.000,0.300,986.000,0.500,1100.000,1.000,309.000,5.000,0
"04/01/08","00:08:28",12991.000,"cc",28372.672,6.00,6,0.100,9223.000,0.200,1404.000,0.300,968.000,0.500,1019.000,1.000,377.000,5.000,0
"04/01/08","00:08:34",12719.000,"cc",28296.051,6.00,6,0.100,8868.000,0.200,1462.000,0.300,971.000,0.500,1116.000,1.000,302.000,5.000,0
"04/01/08","00:08:40",11747.000,"cc",28302.738,6.00,6,0.100,8192.000,0.200,1282.000,0.300,950.000,0.500,1015.000,1.000,308.000,5.000,0
"04/01/08","00:08:46",12035.000,"cc",28265.102,6.00,6,0.100,8449.000,0.200,1316.000,0.300,959.000,0.500,1026.000,1.000,285.000,5.000,0
"04/01/08","00:08:52",13314.000,"cc",28271.227,6.00,6,0.100,9678.000,0.200,1421.000,0.300,954.000,0.500,970.000,1.000,291.000,5.000,0
"04/01/08","00:08:58",11360.000,"cc",28263.014,6.00,6,0.100,8108.000,0.200,1212.000,0.300,877.000,0.500,903.000,1.000,260.000,5.000,0
"04/01/08","00:09:04",11441.000,"cc",28382.049,6.00,6,0.100,8178.000,0.200,1218.000,0.300,854.000,0.500,917.000,1.000,274.000,5.000,0
"04/01/08","00:09:10",11346.000,"cc",28361.572,6.00,6,0.100,8064.000,0.200,1168.000,0.300,879.000,0.500,963.000,1.000,272.000,5.000,0
"04/01/08","00:09:16",10910.000,"cc",28290.391,6.00,6,0.100,7627.000,0.200,1203.000,0.300,872.000,0.500,929.000,1.000,279.000,5.000,0
"04/01/08","00:09:22",10978.000,"cc",28306.813,6.00,6,0.100,7779.000,0.200,1140.000,0.300,841.000,0.500,933.000,1.000,285.000,5.000,0
"04/01/08","00:09:28",10631.000,"cc",28306.832,6.00,6,0.100,7534.000,0.200,1109.000,0.300,850.000,0.500,884.000,1.000,254.000,5.000,0
"04/01/08","00:09:34",10862.000,"cc",28289.981,6.00,6,0.100,7714.000,0.200,1163.000,0.300,794.000,0.500,948.000,1.000,243.000,5.000,0
"04/01/08","00:09:40",11043.000,"cc",28320.078,6.00,6,0.100,7768.000,0.200,1233.000,0.300,800.000,0.500,939.000,1.000,303.000,5.000,0
"04/01/08","00:09:46",10603.000,"cc",28319.447,6.00,6,0.100,7391.000,0.200,1214.000,0.300,799.000,0.500,912.000,1.000,287.000,5.000,0
"04/01/08","00:09:52",10663.000,"cc",28363.754,6.00,6,0.100,7555.000,0.200,1160.000,0.300,799.000,0.500,887.000,1.000,262.000,5.000,0
"04/01/08","00:09:58",10251.000,"cc",28339.311,6.00,6,0.100,7153.000,0.200,1110.000,0.300,828.000,0.500,900.000,1.000,260.000,5.000,0
"04/01/08","00:10:04",10163.000,"cc",28250.184,6.00,6,0.100,7156.000,0.200,1137.000,0.300,770.000,0.500,866.000,1.000,234.000,5.000,0
"04/01/08","00:10:10",9973.000,"cc",28281.762,6.00,6,0.100,7136.000,0.200,1057.000,0.300,754.000,0.500,779.000,1.000,247.000,5.000,0
"04/01/08","00:10:16",9871.000,"cc",28326.598,6.00,6,0.100,6949.000,0.200,1085.000,0.300,786.000,0.500,815.000,1.000,236.000,5.000,0
"04/01/08","00:10:22",10124.000,"cc",28310.270,6.00,6,0.100,7134.000,0.200,1172.000,0.300,758.000,0.500,827.000,1.000,233.000,5.000,0
"04/01/08","00:10:28",10319.000,"cc",28375.506,6.00,6,0.100,7215.000,0.200,1115.000,0.300,814.000,0.500,905.000,1.000,270.000,5.000,0
"04/01/08","00:10:34",10231.000,"cc",28351.961,6.00,6,0.100,7268.000,0.200,1109.000,0.300,714.000,0.500,882.000,1.000,258.000,5.000,0
"04/01/08","00:10:40",10352.000,"cc",28280.883,6.00,6,0.100,7359.000,0.200,1086.000,0.300,799.000,0.500,838.000,1.000,270.000,5.000,0
"04/01/08","00:10:46",10612.000,"cc",28274.184,6.00,6,0.100,7471.000,0.200,1166.000,0.300,819.000,0.500,883.000,1.000,273.000,5.000,0
"04/01/08","00:10:52",10798.000,"cc",28294.027,6.00,6,0.100,7632.000,0.200,1195.000,0.300,820.000,0.500,893.000,1.000,258.000,5.000,0
"04/01/08","00:10:58",10892.000,"cc",28347.410,6.00,6,0.100,7828.000,0.200,1151.000,0.300,825.000,0.500,837.000,1.000,251.000,5.000,0
"04/01/08","00:11:04",10858.000,"cc",28315.000,6.00,6,0.100,7812.000,0.200,1158.000,0.300,796.000,0.500,818.000,1.000,274.000,5.000,0
"04/01/08","00:11:10",10857.000,"cc",28270.809,6.00,6,0.100,7705.000,0.200,1141.000,0.300,807.000,0.500,948.000,1.000,256.000,5.000,0
"04/01/08","00:11:16",10899.000,"cc",28316.356,6.00,6,0.100,7661.000,0.200,1170.000,0.300,805.000,0.500,957.000,1.000,306.000,5.000,0
"04/01/08","00:11:22",10946.000,"cc",28341.412,6.00,6,0.100,7765.000,0.200,1193.000,0.300,822.000,0.500,926.000,1.000,240.000,5.000,0
"04/01/08","00:11:28",11222.000,"cc",28320.926,6.00,6,0.100,7991.000,0.200,1184.000,0.300,866.000,0.500,902.000,1.000,279.000,5.000,0
"04/01/08","00:11:34",11004.000,"cc",28348.943,6.00,6,0.100,7822.000,0.200,1277.000,0.300,811.000,0.500,828.000,1.000,266.000,5.000,0
"04/01/08","00:11:40",11157.000,"cc",28372.486,6.00,6,0.100,7944.000,0.200,1190.000,0.300,866.000,0.500,888.000,1.000,269.000,5.000,0
"04/01/08","00:11:46",11146.000,"cc",28320.102,6.00,6,0.100,7949.000,0.200,1163.000,0.300,822.000,0.500,938.000,1.000,274.000,5.000,0
"04/01/08","00:11:52",11386.000,"cc",28330.971,6.00,6,0.100,7957.000,0.200,1252.000,0.300,879.000,0.500,992.000,1.000,306.000,5.000,0
"04/01/08","00:11:58",11111.000,"cc",28318.785,6.00,6,0.100,7858.000,0.200,1190.000,0.300,902.000,0.500,883.000,1.000,278.000,5.000,0
"04/01/08","00:12:04",11608.000,"cc",28240.828,6.00,6,0.100,8145.000,0.200,1322.000,0.300,945.000,0.500,916.000,1.000,280.000,5.000,0
"04/01/08","00:12:10",11305.000,"cc",28339.496,6.00,6,0.100,7970.000,0.200,1259.000,0.300,846.000,0.500,937.000,1.000,293.000,5.000,0
"04/01/08","00:12:16",11113.000,"cc",28311.930,6.00,6,0.100,7698.000,0.200,1240.000,0.300,895.000,0.500,995.000,1.000,285.000,5.000,0
"04/01/08","00:12:22",11298.000,"cc",28217.361,6.00,6,0.100,7924.000,0.200,1237.000,0.300,903.000,0.500,965.000,1.000,269.000,5.000,0
"04/01/08","00:12:28",11461.000,"cc",28351.414,6.00,6,0.100,8004.000,0.200,1243.000,0.300,940.000,0.500,964.000,1.000,310.000,5.000,0
"04/01/08","00:12:34",11555.000,"cc",28338.357,6.00,6,0.100,8176.000,0.200,1278.000,0.300,877.000,0.500,924.000,1.000,300.000,5.000,0
"04/01/08","00:12:40",11563.000,"cc",28257.211,6.00,6,0.100,8176.000,0.200,1233.000,0.300,932.000,0.500,925.000,1.000,297.000,5.000,0
"04/01/08","00:12:46",11640.000,"cc",28274.971,6.00,6,0.100,8310.000,0.200,1183.000,0.300,862.000,0.500,950.000,1.000,335.000,5.000,0
"04/01/08","00:12:52",11793.000,"cc",28393.828,6.00,6,0.100,8313.000,0.200,1262.000,0.300,900.000,0.500,989.000,1.000,329.000,5.000,0
"04/01/08","00:12:58",12079.000,"cc",28308.188,6.00,6,0.100,8431.000,0.200,1354.000,0.300,929.000,0.500,1044.000,1.000,321.000,5.000,0
"04/01/08","00:13:04",11871.000,"cc",28285.582,6.00,6,0.100,8310.000,0.200,1302.000,0.300,910.000,0.500,1037.000,1.000,312.000,5.000,0
"04/01/08","00:13:10",12019.000,"cc",28332.750,6.00,6,0.100,8518.000,0.200,1266.000,0.300,918.000,0.500,1037.000,1.000,280.000,5.000,0
"04/01/08","00:13:16",11956.000,"cc",28323.473,6.00,6,0.100,8416.000,0.200,1257.000,0.300,955.000,0.500,1028.000,1.000,300.000,5.000,0
"04/01/08","00:13:22",11962.000,"cc",28344.883,6.00,6,0.100,8343.000,0.200,1327.000,0.300,897.000,0.500,1064.000,1.000,331.000,5.000,0
"04/01/08","00:13:28",11860.000,"cc",28295.385,6.00,6,0.100,8371.000,0.200,1291.000,0.300,903.000,0.500,987.000,1.000,308.000,5.000,0
"04/01/08","00:13:34",11925.000,"cc",28378.943,6.00,6,0.100,8382.000,0.200,1278.000,0.300,973.000,0.500,989.000,1.000,303.000,5.000,0
"04/01/08","00:13:40",11545.000,"cc",28283.680,6.00,6,0.100,8092.000,0.200,1262.000,0.300,936.000,0.500,947.000,1.000,308.000,5.000,0
"04/01/08","00:13:46",11556.000,"cc",28326.324,6.00,6,0.100,8236.000,0.200,1275.000,0.300,813.000,0.500,945.000,1.000,287.000,5.000,0
"04/01/08","00:13:52",11511.000,"cc",28386.326,6.00,6,0.100,8119.000,0.200,1256.000,0.300,887.000,0.500,964.000,1.000,285.000,5.000,0
"04/01/08","00:13:58",11959.000,"cc",28274.078,6.00,6,0.100,8372.000,0.200,1296.000,0.300,956.000,0.500,1067.000,1.000,268.000,5.000,0
"04/01/08","00:14:04",11123.000,"cc",28324.332,6.00,6,0.100,7900.000,0.200,1221.000,0.300,807.000,0.500,910.000,1.000,285.000,5.000,0
"04/01/08","00:14:10",10963.000,"cc",28252.387,6.00,6,0.100,7750.000,0.200,1255.000,0.300,784.000,0.500,868.000,1.000,306.000,5.000,0
"04/01/08","00:14:16",11467.000,"cc",28374.125,6.00,6,0.100,8042.000,0.200,1275.000,0.300,853.000,0.500,996.000,1.000,301.000,5.000,0
"04/01/08","00:14:22",11285.000,"cc",28286.815,6.00,6,0.100,7950.000,0.200,1265.000,0.300,837.000,0.500,921.000,1.000,312.000,5.000,0
"04/01/08","00:14:28",11535.000,"cc",28340.963,6.00,6,0.100,8094.000,0.200,1251.000,0.300,896.000,0.500,996.000,1.000,298.000,5.000,0
"04/01/08","00:14:34",11116.000,"cc",28283.168,6.00,6,0.100,7869.000,0.200,1204.000,0.300,849.000,0.500,922.000,1.000,272.000,5.000,0
"04/01/08","00:14:40",11107.000,"cc",28342.613,6.00,6,0.100,7879.000,0.200,1141.000,0.300,870.000,0.500,924.000,1.000,293.000,5.000,0
"04/01/08","00:14:46",11028.000,"cc",28277.975,6.00,6,0.100,7872.000,0.200,1174.000,0.300,810.000,0.500,929.000,1.000,243.000,5.000,0
"04/01/08","00:14:52",11330.000,"cc",28305.918,6.00,6,0.100,8008.000,0.200,1179.000,0.300,888.000,0.500,928.000,1.000,327.000,5.000,0
"04/01/08","00:14:58",11210.000,"cc",28354.520,6.00,6,0.100,7843.000,0.200,1215.000,0.300,970.000,0.500,893.000,1.000,289.000,5.000,0
"04/01/08","00:15:04",11421.000,"cc",28331.020,6.00,6,0.100,8051.000,0.200,1190.000,0.300,890.000,0.500,995.000,1.000,295.000,5.000,0
"04/01/08","00:15:10",11629.000,"cc",28353.229,6.00,6,0.100,8164.000,0.200,1249.000,0.300,887.000,0.500,1024.000,1.000,305.000,5.000,0
"04/01/08","00:15:16",11647.000,"cc",28278.779,6.00,6,0.100,8214.000,0.200,1239.000,0.300,872.000,0.500,1023.000,1.000,299.000,5.000,0
"04/01/08","00:15:22",12049.000,"cc",28292.613,6.00,6,0.100,8542.000,0.200,1265.000,0.300,908.000,0.500,1020.000,1.000,314.000,5.000,0
"04/01/08","00:15:28",11935.000,"cc",28337.262,6.00,6,0.100,8271.000,0.200,1321.000,0.300,962.000,0.500,1071.000,1.000,310.000,5.000,0
"04/01/08","00:15:34",12224.000,"cc",28321.303,6.00,6,0.100,8567.000,0.200,1318.000,0.300,944.000,0.500,1112.000,1.000,283.000,5.000,0
"04/01/08","00:15:40",12450.000,"cc",28326.424,6.00,6,0.100,8789.000,0.200,1323.000,0.300,948.000,0.500,1082.000,1.000,308.000,5.000,0
"04/01/08","00:15:46",12657.000,"cc",28331.152,6.00,6,0.100,8693.000,0.200,1443.000,0.300,1032.000,0.500,1134.000,1.000,355.000,5.000,0
"04/01/08","00:15:52",13015.000,"cc",28286.658,6.00,6,0.100,9128.000,0.200,1432.000,0.300,1039.000,0.500,1108.000,1.000,308.000,5.000,0
"04/01/08","00:15:58",13013.000,"cc",28257.318,6.00,6,0.100,9135.000,0.200,1423.000,0.300,973.000,0.500,1150.000,1.000,332.000,5.000,0
"04/01/08","00:16:04",12820.000,"cc",28366.781,6.00,6,0.100,8974.000,0.200,1423.000,0.300,1047.000,0.500,1040.000,1.000,336.000,5.000,0
"04/01/08","00:16:10",12995.000,"cc",28341.830,6.00,6,0.100,9061.000,0.200,1403.000,0.300,1089.000,0.500,1127.000,1.000,315.000,5.000,0
"04/01/08","00:16:16",12779.000,"cc",28332.447,6.00,6,0.100,8898.000,0.200,1388.000,0.300,1031.000,0.500,1128.000,1.000,334.000,5.000,0
"04/01/08","00:16:22",12631.000,"cc",28268.572,6.00,6,0.100,8922.000,0.200,1420.000,0.300,926.000,0.500,1039.000,1.000,324.000,5.000,0
"04/01/08","00:16:28",12620.000,"cc",28276.231,6.00,6,0.100,8912.000,0.200,1393.000,0.300,935.000,0.500,1055.000,1.000,325.000,5.000,0
"04/01/08","00:16:34",12818.000,"cc",28310.996,6.00,6,0.100,8862.000,0.200,1448.000,0.300,1043.000,0.500,1112.000,1.000,353.000,5.000,0